Powrót do katalogu

BRO-20

AktywnyNaukaSSO
NORAD 66674·PAYLOAD·🇫🇷 France

Wystrzelony Nov 28, 2025 z Vandenberg Space Force Base

Loading…

Następne Przeloty (najbliższe 24 godziny)

TLE

ŚwieżeSource: Space-Track

Epoka: Sep 13, 2026, 22:18 UTC

1 66674U 25276J   26256.92978182  .00002236  00000-0  11121-3 0  9990
2 66674  97.4096 328.2899 0007640  62.7526 297.4486 15.18623505 43869

Śledź BRO-20 w czasie rzeczywistym z AllMySat

Download on the App Store